| time (UTC) | temp F | wind direction | speed knots | gust knots | rain 1hr in | rain 24hr in | rain mn in | humidity % | barometer mb |
| 20260905091607 | 69 | 0 | 0.0 | 0.9 | 0.00 | 0.04 | 0.04 | 88 | 1007.9 |
| 20260905090103 | 69 | 0 | 0.0 | 0.9 | 0.00 | 0.04 | 0.04 | 88 | 1007.9 |
| 20260905084607 | 70 | 0 | 0.0 | 0.9 | 0.00 | 0.04 | 0.04 | 88 | 1007.8 |
| 20260905083058 | 70 | 0 | 0.0 | 1.7 | 0.00 | 0.04 | 0.04 | 89 | 1007.7 |
| 20260905081619 | 70 | 0 | 0.0 | 0.9 | 0.00 | 0.04 | 0.04 | 89 | 1007.9 |
| 20260905080100 | 70 | 0 | 0.0 | 0.9 | 0.00 | 0.04 | 0.04 | 89 | 1007.9 |
| 20260905074604 | 71 | 0 | 0.0 | 0.9 | 0.00 | 0.04 | 0.04 | 90 | 1007.8 |
| 20260905073126 | 71 | 0 | 0.0 | 0.0 | 0.00 | 0.04 | 0.04 | 89 | 1008.1 |
| 20260905071602 | 71 | 0 | 0.0 | 0.0 | 0.04 | 0.04 | 0.04 | 88 | 1008.1 |
| 20260905070105 | 71 | 0 | 0.0 | 0.0 | 0.04 | 0.04 | 0.04 | 87 | 1008.2 |
| 20260905064603 | 72 | 0 | 0.0 | 0.0 | 0.04 | 0.04 | 0.04 | 85 | 1008.3 |
| 20260905063118 | 73 | 0 | 0.0 | 1.7 | 0.04 | 0.04 | 0.04 | 82 | 1008.5 |
| 20260905061614 | 74 | 0 | 0.0 | 2.6 | 0.00 | 0.00 | 0.00 | 75 | 1008.7 |
| 20260905060056 | 75 | 0 | 0.9 | 3.5 | 0.00 | 0.00 | 0.00 | 77 | 1008.5 |
| 20260905054601 | 75 | 0 | 0.0 | 1.7 | 0.00 | 0.01 | 0.00 | 79 | 1008.7 |
| 20260905053100 | 74 | 0 | 0.0 | 1.7 | 0.00 | 0.01 | 0.00 | 82 | 1008.6 |
| 20260905051600 | 75 | 0 | 0.0 | 0.0 | 0.00 | 0.01 | 0.00 | 84 | 1008.5 |
| 20260905050106 | 75 | 0 | 0.0 | 0.0 | 0.00 | 0.01 | 0.00 | 85 | 1008.7 |
| 20260905044603 | 75 | 0 | 0.0 | 0.9 | 0.00 | 0.01 | 0.00 | 84 | 1008.8 |
| 20260905043132 | 75 | 0 | 0.0 | 0.9 | 0.00 | 0.01 | 0.00 | 84 | 1009.0 |
| 20260905041555 | 75 | 0 | 0.0 | 1.7 | 0.00 | 0.01 | 0.00 | 84 | 1009.0 |
| 20260905040117 | 76 | 0 | 0.0 | 0.0 | 0.00 | 0.01 | 0.00 | 85 | 1009.1 |
| 20260905034602 | 76 | 0 | 0.0 | 0.9 | 0.00 | 0.01 | 0.01 | 84 | 1009.0 |
| 20260905033101 | 76 | 0 | 0.0 | 0.0 | 0.00 | 0.01 | 0.01 | 84 | 1009.1 |
| 20260905031555 | 76 | 0 | 0.0 | 0.9 | 0.00 | 0.01 | 0.01 | 84 | 1009.0 |
| 20260905030054 | 76 | 0 | 0.0 | 0.9 | 0.00 | 0.01 | 0.01 | 84 | 1009.0 |
| 20260905024557 | 76 | 250 | 0.0 | 1.7 | 0.00 | 0.01 | 0.01 | 84 | 1009.0 |
| 20260905023103 | 76 | 0 | 0.0 | 0.9 | 0.00 | 0.01 | 0.01 | 85 | 1008.9 |
| 20260905021556 | 76 | 0 | 0.0 | 0.0 | 0.00 | 0.01 | 0.01 | 84 | 1008.8 |
| 20260905020051 | 76 | 0 | 0.0 | 0.0 | 0.00 | 0.01 | 0.01 | 84 | 1009.1 |
| 20260905014559 | 76 | 0 | 0.0 | 0.0 | 0.00 | 0.01 | 0.01 | 83 | 1009.1 |
| 20260905013100 | 77 | 0 | 0.0 | 0.0 | 0.00 | 0.01 | 0.01 | 83 | 1009.1 |
| 20260905011555 | 77 | 0 | 0.0 | 0.0 | 0.00 | 0.01 | 0.01 | 83 | 1009.3 |
| 20260905010107 | 77 | 0 | 0.0 | 0.9 | 0.00 | 0.01 | 0.01 | 83 | 1009.2 |
| 20260905004613 | 77 | 0 | 0.0 | 0.9 | 0.00 | 0.01 | 0.01 | 84 | 1008.9 |
| 20260905003053 | 77 | 0 | 0.0 | 0.0 | 0.00 | 0.01 | 0.01 | 84 | 1008.7 |
| 20260905001605 | 77 | 0 | 0.0 | 0.9 | 0.00 | 0.01 | 0.01 | 84 | 1008.5 |
| 20260905000059 | 78 | 0 | 0.0 | 0.9 | 0.00 | 0.01 | 0.01 | 83 | 1008.6 |
| 20260904234558 | 79 | 0 | 0.0 | 0.0 | 0.00 | 0.01 | 0.01 | 81 | 1008.6 |
| 20260904233107 | 80 | 0 | 0.0 | 0.0 | 0.00 | 0.01 | 0.01 | 79 | 1008.7 |
| 20260904231604 | 80 | 0 | 0.0 | 0.0 | 0.00 | 0.01 | 0.01 | 78 | 1008.9 |
| 20260904230108 | 82 | 0 | 0.0 | 0.0 | 0.00 | 0.01 | 0.01 | 76 | 1008.9 |
| 20260904224604 | 82 | 0 | 0.0 | 0.0 | 0.00 | 0.01 | 0.01 | 73 | 1008.8 |
| 20260904223100 | 83 | 0 | 0.0 | 1.7 | 0.00 | 0.01 | 0.01 | 72 | 1008.7 |
| 20260904221605 | 84 | 0 | 0.0 | 0.9 | 0.00 | 0.01 | 0.01 | 70 | 1008.8 |
| 20260904220115 | 84 | 0 | 0.9 | 1.7 | 0.00 | 0.01 | 0.01 | 67 | 1008.8 |
| 20260904214602 | 85 | 0 | 0.0 | 2.6 | 0.00 | 0.01 | 0.01 | 66 | 1008.7 |
| 20260904213109 | 85 | 268 | 0.9 | 3.5 | 0.00 | 0.01 | 0.01 | 65 | 1008.9 |
| 20260904211613 | 84 | 19 | 0.9 | 2.6 | 0.00 | 0.01 | 0.01 | 67 | 1008.5 |
| 20260904210105 | 84 | 243 | 0.0 | 2.6 | 0.00 | 0.01 | 0.01 | 67 | 1008.6 |
| 20260904204617 | 85 | 0 | 0.9 | 2.6 | 0.00 | 0.01 | 0.01 | 64 | 1008.8 |
| 20260904203058 | 86 | 0 | 0.9 | 3.5 | 0.00 | 0.01 | 0.01 | 62 | 1008.9 |
| 20260904201603 | 87 | 259 | 1.7 | 5.2 | 0.00 | 0.01 | 0.01 | 61 | 1008.8 |
| 20260904200100 | 87 | 225 | 1.7 | 4.3 | 0.00 | 0.01 | 0.01 | 61 | 1009.1 |
| 20260904194615 | 86 | 244 | 0.9 | 3.5 | 0.00 | 0.01 | 0.01 | 63 | 1009.3 |
| 20260904193059 | 86 | 245 | 0.9 | 3.5 | 0.00 | 0.01 | 0.01 | 63 | 1009.7 |
| 20260904191602 | 86 | 265 | 2.6 | 4.3 | 0.00 | 0.01 | 0.01 | 62 | 1009.7 |
| 20260904190101 | 86 | 267 | 0.9 | 4.3 | 0.00 | 0.01 | 0.01 | 62 | 1009.8 |
| 20260904184600 | 87 | 276 | 0.9 | 3.5 | 0.00 | 0.01 | 0.01 | 62 | 1009.7 |
| 20260904183116 | 86 | 5 | 1.7 | 5.2 | 0.00 | 0.01 | 0.01 | 63 | 1009.9 |
| 20260904181604 | 86 | 295 | 0.9 | 5.2 | 0.00 | 0.01 | 0.01 | 63 | 1010.0 |
| 20260904180121 | 87 | 276 | 1.7 | 3.5 | 0.00 | 0.01 | 0.01 | 62 | 1009.9 |
| 20260904174608 | 86 | 118 | 1.7 | 4.3 | 0.00 | 0.01 | 0.01 | 62 | 1010.0 |
| 20260904173054 | 86 | 350 | 1.7 | 6.1 | 0.00 | 0.01 | 0.01 | 60 | 1010.0 |
| 20260904171558 | 87 | 277 | 1.7 | 6.1 | 0.00 | 0.01 | 0.01 | 60 | 1010.0 |
| 20260904170059 | 86 | 294 | 2.6 | 5.2 | 0.00 | 0.01 | 0.01 | 62 | 1009.8 |
| 20260904164557 | 86 | 313 | 1.7 | 7.8 | 0.00 | 0.01 | 0.01 | 61 | 1009.9 |
| 20260904163100 | 86 | 360 | 1.7 | 6.1 | 0.00 | 0.01 | 0.01 | 61 | 1010.0 |
| 20260904161620 | 85 | 281 | 0.9 | 7.8 | 0.00 | 0.01 | 0.01 | 62 | 1010.1 |
| 20260904160106 | 85 | 265 | 1.7 | 7.0 | 0.00 | 0.01 | 0.01 | 64 | 1010.1 |
| 20260904154603 | 84 | 259 | 1.7 | 5.2 | 0.00 | 0.01 | 0.01 | 66 | 1010.1 |
| 20260904153103 | 84 | 243 | 1.7 | 7.8 | 0.00 | 0.01 | 0.01 | 68 | 1010.3 |
| 20260904151558 | 83 | 360 | 2.6 | 8.7 | 0.00 | 0.01 | 0.01 | 67 | 1010.4 |
| 20260904150105 | 82 | 213 | 3.5 | 10.4 | 0.00 | 0.01 | 0.01 | 70 | 1010.2 |
| 20260904144609 | 82 | 286 | 2.6 | 6.1 | 0.00 | 0.01 | 0.01 | 72 | 1010.1 |
| 20260904143102 | 81 | 242 | 2.6 | 7.8 | 0.00 | 0.01 | 0.01 | 75 | 1010.2 |
| 20260904141600 | 80 | 261 | 2.6 | 6.1 | 0.00 | 0.01 | 0.01 | 77 | 1010.1 |
| 20260904140059 | 80 | 244 | 3.5 | 7.0 | 0.00 | 0.01 | 0.01 | 79 | 1010.1 |
| 20260904134557 | 79 | 260 | 2.6 | 7.0 | 0.00 | 0.01 | 0.01 | 80 | 1010.1 |
| 20260904133114 | 78 | 248 | 1.7 | 6.1 | 0.00 | 0.01 | 0.01 | 81 | 1010.0 |
| 20260904131556 | 78 | 263 | 2.6 | 7.0 | 0.00 | 0.01 | 0.01 | 82 | 1009.9 |
| 20260904130101 | 77 | 227 | 2.6 | 7.0 | 0.00 | 0.01 | 0.01 | 82 | 1010.0 |
| 20260904124606 | 77 | 266 | 2.6 | 8.7 | 0.00 | 0.01 | 0.01 | 83 | 1010.1 |
| 20260904123057 | 76 | 250 | 2.6 | 7.8 | 0.00 | 0.01 | 0.01 | 85 | 1010.1 |
| 20260904121556 | 76 | 0 | 1.7 | 6.1 | 0.00 | 0.01 | 0.01 | 86 | 1010.0 |
| 20260904120110 | 75 | 270 | 1.7 | 6.1 | 0.00 | 0.01 | 0.01 | 87 | 1010.0 |
| 20260904114602 | 74 | 214 | 0.9 | 6.1 | 0.00 | 0.01 | 0.01 | 89 | 1009.9 |
| 20260904113058 | 74 | 307 | 0.9 | 3.5 | 0.00 | 0.01 | 0.01 | 89 | 1009.9 |
| 20260904111557 | 74 | 233 | 0.9 | 3.5 | 0.00 | 0.01 | 0.01 | 89 | 1009.7 |
| 20260904104601 | 74 | 234 | 0.9 | 2.6 | 0.00 | 0.06 | 0.01 | 90 | 1009.6 |
| 20260904103057 | 75 | 240 | 0.9 | 3.5 | 0.00 | 0.06 | 0.01 | 90 | 1009.6 |
| 20260904101605 | 75 | 240 | 0.9 | 2.6 | 0.00 | 0.06 | 0.01 | 90 | 1009.6 |
| 20260904094558 | 75 | 196 | 0.0 | 3.5 | 0.00 | 0.19 | 0.01 | 90 | 1009.1 |
| 20260904093054 | 75 | 211 | 0.9 | 4.3 | 0.00 | 0.19 | 0.01 | 90 | 1009.2 |